Location: *
(28.2408°N, 53.4600°E)
Time: 15:14:44
(UTC+00:00)

Cosmos 1939 Rocket - Pass Details

Date: 22 September 2019
Orbit: 534 x 583 km, 97.4° (Epoch: 13 October)

Event Time Altitude Azimuth Distance (km) Brightness Sun altitude
Exits shadow 15:17:56 - 159° (SSE) 2,695 6.1 -12.8°
Rises 15:17:58 0° 158° (SSE) 2,677 6.0 -12.8°
Reaches altitude 10° 15:20:07 10° 154° (SSE) 1,785 5.1 -13.3°
Maximum altitude 15:23:52 54° 77° (ENE) 652 2.8 -14.1°
Drops below altitude 10° 15:27:38 10° 359° (N) 1,788 5.5 -15.0°
Sets 15:29:46 0° 355° (N) 2,682 6.5 -15.4°
